Regional Weather Roundup
Issued by NWS

Home | Current Version | Previous Version | Text Only | Print | Product List | Glossary Off
Versions: 1 2 3 4 5 6 7 8 9 10 11 12 13 14 15 16 17 18 19 20 21 22 23 24 25 26 27 28 29 30 31 32 33 34 35 36 37 38 39 40 41 42 43 44 45 46 47 48 49 50

000
ASUS43 KBIS 220501
RWRND

NORTH DAKOTA REGIONAL WEATHER ROUNDUP
NATIONAL WEATHER SERVICE BISMARCK ND
1200 AM CDT FRI MAY 22 2015

NOTE: "FAIR" INDICATES FEW OR NO CLOUDS BELOW 12,000 FEET WITH NO
SIGNIFICANT WEATHER AND/OR OBSTRUCTIONS TO VISIBILITY.


NDZ001>003-009>011-017-220600-
NORTHWEST NORTH DAKOTA

CITY           SKY/WX    TMP DP  RH WIND       PRES   REMARKS
WILLISTON      CLEAR     60  33  36 SE7       30.11R
MINOT          CLEAR     56  39  53 S6        30.12S
MINOT AFB      CLEAR     47  38  71 S2        30.11S
$$

NDZ018>021-031>035-040>046-220600-
SOUTHWEST NORTH DAKOTA

CITY           SKY/WX    TMP DP  RH WIND       PRES   REMARKS
BISMARCK       MOCLDY    54  44  69 NE7       30.14R
DICKINSON      CLEAR     49  34  56 S6        30.12S
GARRISON         N/A     55  38  52 CALM      30.13R
HETTINGER ARPT CLEAR     48  33  56 SE5       30.15S
$$

NDZ004>008-012>016-024-026-027-054-220600-
NORTHEAST NORTH DAKOTA

CITY           SKY/WX    TMP DP  RH WIND       PRES   REMARKS
GRAND FORKS    CLEAR     48  39  71 CALM      30.13R
GRND FRKS AFB  CLEAR     46  42  86 W3        30.13S
DEVILS LAKE    CLEAR     52  37  58 SE3       30.13S
$$

NDZ022-023-025-028>030-036>039-047>053-220600-
SOUTHEAST NORTH DAKOTA

CITY           SKY/WX    TMP DP  RH WIND       PRES   REMARKS
FARGO          CLEAR     52  41  66 N3        30.13R
JAMESTOWN      CLEAR     55  40  56 SE5       30.14R
$$




USA.gov is the U.S. government's official web portal to all federal, state and local government web resources and services.